,,,PA_Meas_PMT16A,,PR_Meas_QMR101_102,,RH_Meas_QMH101,,SR_Meas_QMS101,,TA_Meas_QMH101,,GenWind,,GenWind,
date,time,status,PA,status,PR,status,RH,status,SR,status,TA,status,DirAvg,status,SpdAvg,
2014-09-25, 00:00:04,VALID,1010.61,VALID,0,INVALID,134.32,VALID,0,VALID,24.4735,VALID,198,VALID,0.295312,
2014-09-25, 00:01:04,VALID,1010.64,VALID,0,INVALID,134.297,VALID,0,VALID,24.493,VALID,198,VALID,0.364062,
2014-09-25, 00:02:04,VALID,1010.65,VALID,0,INVALID,134.251,VALID,0,VALID,24.493,VALID,198,VALID,0.349219,
2014-09-25, 00:03:04,VALID,1010.66,VALID,0,INVALID,134.267,VALID,0,VALID,24.532,VALID,198,VALID,0.511719,
2014-09-25, 00:04:04,VALID,1010.64,VALID,0,INVALID,134.259,VALID,0,VALID,24.5515,VALID,198,VALID,0.516797,
2014-09-25, 00:05:04,VALID,1010.65,VALID,0,INVALID,134.343,VALID,0,VALID,24.571,VALID,198,VALID,0.283984,
2014-09-25, 00:06:04,VALID,1010.65,VALID,0,INVALID,134.419,VALID,0,VALID,24.571,VALID,198,VALID,0,
2014-09-25, 00:07:04,VALID,1010.65,VALID,0,INVALID,134.587,VALID,0,VALID,24.571,VALID,198,VALID,0,
2014-09-25, 00:08:04,VALID,1010.64,VALID,0,INVALID,134.747,VALID,0,VALID,24.571,VALID,198,VALID,0.203906,
2014-09-25, 00:09:04,VALID,1010.62,VALID,0,INVALID,134.831,VALID,0,VALID,24.571,VALID,198,VALID,0.294141,
2014-09-25, 00:10:04,VALID,1010.62,VALID,0,INVALID,135.029,VALID,0,VALID,24.5905,VALID,198,VALID,0.170703,
2014-09-25, 00:11:04,VALID,1010.62,VALID,0,INVALID,135.197,VALID,0,VALID,24.571,VALID,198,VALID,0.0015625,
2014-09-25, 00:12:04,VALID,1010.63,VALID,0,INVALID,135.388,VALID,0,VALID,24.571,VALID,198,VALID,0,
2014-09-25, 00:13:04,VALID,1010.61,VALID,0,INVALID,135.502,VALID,0,VALID,24.5515,VALID,198,VALID,0.00078125,
2014-09-25, 00:14:04,VALID,1010.63,VALID,0,INVALID,135.647,VALID,0,VALID,24.532,VALID,198,VALID,0.317187,
2014-09-25, 00:15:04,VALID,1010.61,VALID,0,INVALID,135.746,VALID,0,VALID,24.532,VALID,198,VALID,0.295703,
2014-09-25, 00:16:04,VALID,1010.59,VALID,0,INVALID,135.815,VALID,0,VALID,24.5125,VALID,198,VALID,0.380469,
2014-09-25, 00:17:04,VALID,1010.59,VALID,0,INVALID,135.883,VALID,0,VALID,24.493,VALID,198,VALID,0.326172,
2014-09-25, 00:18:04,VALID,1010.55,VALID,0,INVALID,135.83,VALID,0.112112,VALID,24.5125,VALID,198,VALID,0.319531,
2014-09-25, 00:19:04,VALID,1010.53,VALID,0,INVALID,135.876,VALID,0,VALID,24.493,VALID,198,VALID,0.164844,
2014-09-25, 00:20:04,VALID,1010.51,VALID,0,INVALID,135.845,VALID,0,VALID,24.4717,VALID,198,VALID,0.214062,
2014-09-25, 00:21:04,VALID,1010.48,VALID,0,INVALID,135.883,VALID,0,VALID,24.4717,VALID,198,VALID,0.266406,
2014-09-25, 00:22:04,VALID,1010.49,VALID,0,INVALID,135.929,VALID,0,VALID,24.4735,VALID,198,VALID,0.400391,
2014-09-25, 00:23:04,VALID,1010.48,VALID,0,INVALID,135.937,VALID,0,VALID,24.4735,VALID,198,VALID,0.484766,
2014-09-25, 00:24:04,VALID,1010.49,VALID,0,INVALID,135.99,VALID,0,VALID,24.4345,VALID,198,VALID,0.351953,
2014-09-25, 00:25:04,VALID,1010.47,VALID,0,INVALID,136.074,VALID,0,VALID,24.4132,VALID,198,VALID,0.211719,
2014-09-25, 00:26:04,VALID,1010.49,VALID,0,INVALID,136.082,VALID,0,VALID,24.415,VALID,198,VALID,0.246094,
2014-09-25, 00:27:04,VALID,1010.5,VALID,0,INVALID,136.112,VALID,0,VALID,24.3956,VALID,198,VALID,0,
2014-09-25, 00:28:04,VALID,1010.48,VALID,0,INVALID,136.028,VALID,0,VALID,24.3742,VALID,198,VALID,0,
2014-09-25, 00:29:04,VALID,1010.49,VALID,0,INVALID,135.944,VALID,0,VALID,24.3956,VALID,198,VALID,0,
2014-09-25, 00:30:04,VALID,1010.49,VALID,0,INVALID,135.967,VALID,0,VALID,24.3761,VALID,198,VALID,0,
2014-09-25, 00:31:04,VALID,1010.51,VALID,0,INVALID,135.982,VALID,0,VALID,24.3371,VALID,198,VALID,0,
2014-09-25, 00:32:04,VALID,1010.49,VALID,0,INVALID,135.937,VALID,0,VALID,24.2963,VALID,198,VALID,0.134766,
2014-09-25, 00:33:04,VALID,1010.5,VALID,0,INVALID,135.99,VALID,0,VALID,24.2981,VALID,198,VALID,0.188281,
2014-09-25, 00:34:04,VALID,1010.49,VALID,0,INVALID,135.952,VALID,0,VALID,24.2981,VALID,198,VALID,0.230859,
2014-09-25, 00:35:04,VALID,1010.44,VALID,0,INVALID,135.83,VALID,0,VALID,24.2981,VALID,198,VALID,0.265625,
2014-09-25, 00:36:04,VALID,1010.45,VALID,0,INVALID,135.792,VALID,0,VALID,24.2786,VALID,198,VALID,0.132422,
2014-09-25, 00:37:04,VALID,1010.45,VALID,0,INVALID,135.769,VALID,0,VALID,24.2786,VALID,198,VALID,0.0355469,
2014-09-25, 00:38:04,VALID,1010.44,VALID,0,INVALID,135.723,VALID,0,VALID,24.2591,VALID,198,VALID,0,
2014-09-25, 00:39:04,VALID,1010.45,VALID,0,INVALID,135.624,VALID,0,VALID,24.2591,VALID,198,VALID,0.176953,
2014-09-25, 00:40:04,VALID,1010.41,VALID,0,INVALID,135.578,VALID,0,VALID,24.2591,VALID,198,VALID,0.10625,
2014-09-25, 00:41:04,VALID,1010.42,VALID,0,INVALID,135.449,VALID,0,VALID,24.2591,VALID,198,VALID,0.0277344,
2014-09-25, 00:42:04,VALID,1010.41,VALID,0,INVALID,135.426,VALID,0,VALID,24.2396,VALID,198,VALID,0.149219,
2014-09-25, 00:43:04,VALID,1010.39,VALID,0,INVALID,135.342,VALID,0,VALID,24.2396,VALID,198,VALID,0.374219,
2014-09-25, 00:44:04,VALID,1010.37,VALID,0,INVALID,135.258,VALID,0,VALID,24.2396,VALID,198,VALID,0.375,
2014-09-25, 00:45:04,VALID,1010.32,VALID,0,INVALID,135.22,VALID,0,VALID,24.2202,VALID,198,VALID,0.241406,
2014-09-25, 00:46:04,VALID,1010.3,VALID,0,INVALID,135.182,VALID,0,VALID,24.2007,VALID,198,VALID,0.172656,
2014-09-25, 00:47:04,VALID,1010.28,VALID,0,INVALID,135.128,VALID,0,VALID,24.2007,VALID,198,VALID,0.166016,
2014-09-25, 00:48:04,VALID,1010.26,VALID,0,INVALID,135.037,VALID,0,VALID,24.2007,VALID,198,VALID,0.219922,
2014-09-25, 00:49:04,VALID,1010.23,VALID,0,INVALID,134.877,VALID,0,VALID,24.2007,VALID,198,VALID,0,
2014-09-25, 00:50:04,VALID,1010.21,VALID,0,INVALID,134.785,VALID,0.112112,VALID,24.1988,VALID,198,VALID,0,
2014-09-25, 00:51:04,VALID,1010.19,VALID,0,INVALID,134.671,VALID,0,VALID,24.2183,VALID,198,VALID,0,
2014-09-25, 00:52:04,VALID,1010.15,VALID,0,INVALID,134.602,VALID,0.112112,VALID,24.2202,VALID,198,VALID,0,
2014-09-25, 00:53:04,VALID,1010.12,VALID,0,INVALID,134.556,VALID,0.112112,VALID,24.1988,VALID,198,VALID,0,
2014-09-25, 00:54:04,VALID,1010.1,VALID,0,INVALID,134.48,VALID,0,VALID,24.1988,VALID,198,VALID,0.259766,
2014-09-25, 00:55:04,VALID,1010.07,VALID,0,INVALID,134.427,VALID,0,VALID,24.2202,VALID,198,VALID,0.328906,
2014-09-25, 00:56:04,VALID,1010.06,VALID,0,INVALID,134.442,VALID,0,VALID,24.2007,VALID,198,VALID,0.242188,
2014-09-25, 00:57:04,VALID,1010.07,VALID,0,INVALID,134.518,VALID,0,VALID,24.183,VALID,198,VALID,0.259766,
2014-09-25, 00:58:04,VALID,1010.08,VALID,0,INVALID,134.579,VALID,0,VALID,24.1422,VALID,198,VALID,0.255859,
2014-09-25, 00:59:04,VALID,1010.06,VALID,0,INVALID,134.686,VALID,0,VALID,24.1245,VALID,198,VALID,0.158984,
2014-09-25, 01:00:04,VALID,1010.07,VALID,0,INVALID,134.64,VALID,0,VALID,24.1051,VALID,198,VALID,0,
2014-09-25, 01:01:04,VALID,1010.04,VALID,0,INVALID,134.617,VALID,0,VALID,24.1032,VALID,198,VALID,0,
2014-09-25, 01:02:04,VALID,1010.05,VALID,0,INVALID,134.617,VALID,0,VALID,24.1051,VALID,198,VALID,0,
2014-09-25, 01:03:04,VALID,1010.03,VALID,0,INVALID,134.625,VALID,0,VALID,24.0643,VALID,198,VALID,0,
2014-09-25, 01:04:04,VALID,1010.01,VALID,0,INVALID,134.694,VALID,0.112112,VALID,24.0643,VALID,198,VALID,0,
2014-09-25, 01:05:04,VALID,1010,VALID,0,INVALID,134.64,VALID,0,VALID,24.0643,VALID,198,VALID,0,
2014-09-25, 01:06:04,VALID,1009.99,VALID,0,INVALID,134.617,VALID,0.112112,VALID,24.0643,VALID,198,VALID,0,
2014-09-25, 01:07:04,VALID,1009.99,VALID,0,INVALID,134.48,VALID,0.112112,VALID,24.0624,VALID,198,VALID,0,
2014-09-25, 01:08:04,VALID,1009.96,VALID,0,INVALID,134.373,VALID,0,VALID,24.0837,VALID,198,VALID,0,
2014-09-25, 01:09:04,VALID,1009.96,VALID,0,INVALID,134.335,VALID,0,VALID,24.0429,VALID,198,VALID,0.0597656,
2014-09-25, 01:10:04,VALID,1009.93,VALID,0,INVALID,134.229,VALID,0.112112,VALID,24.0624,VALID,198,VALID,0,
2014-09-25, 01:11:04,VALID,1009.9,VALID,0,INVALID,134.19,VALID,0,VALID,24.0624,VALID,198,VALID,0,
2014-09-25, 01:12:04,VALID,1009.9,VALID,0,INVALID,134.122,VALID,0.112112,VALID,24.0837,VALID,198,VALID,0,
2014-09-25, 01:13:04,VALID,1009.91,VALID,0,INVALID,133.969,VALID,0.112112,VALID,24.0819,VALID,198,VALID,0.142578,
2014-09-25, 01:14:04,VALID,1009.88,VALID,0,INVALID,133.779,VALID,0,VALID,24.1422,VALID,198,VALID,0,
2014-09-25, 01:15:04,VALID,1009.88,VALID,0,INVALID,133.695,VALID,0.112112,VALID,24.1014,VALID,198,VALID,0,
2014-09-25, 01:16:04,VALID,1009.85,VALID,0,INVALID,133.718,VALID,0,VALID,24.1014,VALID,198,VALID,0,
2014-09-25, 01:17:04,VALID,1009.85,VALID,0,INVALID,133.695,VALID,0,VALID,24.1227,VALID,198,VALID,0,
2014-09-25, 01:18:04,VALID,1009.86,VALID,0,INVALID,133.672,VALID,0,VALID,24.1227,VALID,198,VALID,0.114063,
2014-09-25, 01:19:04,VALID,1009.87,VALID,0,INVALID,133.733,VALID,0,VALID,24.1227,VALID,198,VALID,0.0292969,
2014-09-25, 01:20:04,VALID,1009.85,VALID,0,INVALID,133.779,VALID,0.112112,VALID,24.0819,VALID,198,VALID,0,
2014-09-25, 01:21:04,VALID,1009.86,VALID,0,INVALID,133.832,VALID,0,VALID,24.0624,VALID,198,VALID,0,
2014-09-25, 01:22:04,VALID,1009.86,VALID,0,INVALID,133.901,VALID,0,VALID,24.0429,VALID,198,VALID,0.034375,
2014-09-25, 01:23:04,VALID,1009.86,VALID,0,INVALID,133.763,VALID,0,VALID,24.0837,VALID,198,VALID,0.329297,
2014-09-25, 01:24:04,VALID,1009.89,VALID,0,INVALID,133.878,VALID,0,VALID,24.0448,VALID,198,VALID,0.220703,
2014-09-25, 01:25:04,VALID,1009.91,VALID,0,INVALID,134.038,VALID,0,VALID,24.0058,VALID,198,VALID,0.125781,
2014-09-25, 01:26:04,VALID,1009.93,VALID,0,INVALID,134.16,VALID,0.112112,VALID,24.0058,VALID,198,VALID,0.136719,
2014-09-25, 01:27:04,VALID,1009.9,VALID,0,INVALID,134.221,VALID,0,VALID,23.9455,VALID,198,VALID,0,
2014-09-25, 01:28:04,VALID,1009.91,VALID,0,INVALID,134.29,VALID,0,VALID,23.9668,VALID,198,VALID,0.279687,
2014-09-25, 01:29:04,VALID,1009.89,VALID,0,INVALID,134.282,VALID,0,VALID,23.9668,VALID,198,VALID,0.264844,
2014-09-25, 01:30:04,VALID,1009.89,VALID,0,INVALID,134.198,VALID,0,VALID,23.9473,VALID,198,VALID,0.283594,
2014-09-25, 01:31:04,VALID,1009.85,VALID,0,INVALID,134.129,VALID,0,VALID,23.9455,VALID,198,VALID,0.327734,
2014-09-25, 01:32:04,VALID,1009.83,VALID,0,INVALID,134.015,VALID,0,VALID,23.9668,VALID,198,VALID,0.244531,
2014-09-25, 01:33:04,VALID,1009.81,VALID,0,INVALID,133.962,VALID,0,VALID,23.9473,VALID,198,VALID,0.201562,
2014-09-25, 01:34:04,VALID,1009.82,VALID,0,INVALID,133.885,VALID,0,VALID,23.9473,VALID,198,VALID,0.180469,
2014-09-25, 01:35:04,VALID,1009.78,VALID,0,INVALID,133.824,VALID,0,VALID,23.9473,VALID,198,VALID,0,
2014-09-25, 01:36:04,VALID,1009.82,VALID,0,INVALID,133.725,VALID,0,VALID,23.9473,VALID,198,VALID,0,
2014-09-25, 01:37:04,VALID,1009.79,VALID,0,INVALID,133.634,VALID,0.112112,VALID,23.9473,VALID,198,VALID,0,
2014-09-25, 01:38:04,VALID,1009.77,VALID,0,INVALID,133.649,VALID,0,VALID,23.9278,VALID,198,VALID,0,
2014-09-25, 01:39:04,VALID,1009.76,VALID,0,INVALID,133.679,VALID,0,VALID,23.9084,VALID,198,VALID,0,
2014-09-25, 01:40:04,VALID,1009.75,VALID,0,INVALID,133.687,VALID,0,VALID,23.9084,VALID,198,VALID,0.122266,
2014-09-25, 01:41:04,VALID,1009.74,VALID,0,INVALID,133.756,VALID,0.112112,VALID,23.8676,VALID,198,VALID,0.207031,
2014-09-25, 01:42:04,VALID,1009.74,VALID,0,INVALID,133.779,VALID,0,VALID,23.8481,VALID,198,VALID,0.1125,
2014-09-25, 01:43:04,VALID,1009.73,VALID,0,INVALID,133.786,VALID,0,VALID,23.8694,VALID,198,VALID,0,
2014-09-25, 01:44:04,VALID,1009.73,VALID,0,INVALID,133.786,VALID,0,VALID,23.8286,VALID,198,VALID,0,
2014-09-25, 01:45:04,VALID,1009.7,VALID,0,INVALID,133.786,VALID,0,VALID,23.8304,VALID,198,VALID,0,
2014-09-25, 01:46:04,VALID,1009.7,VALID,0,INVALID,133.786,VALID,0,VALID,23.8109,VALID,198,VALID,0,
2014-09-25, 01:47:04,VALID,1009.69,VALID,0,INVALID,133.786,VALID,0,VALID,23.8322,VALID,198,VALID,0,
2014-09-25, 01:48:04,VALID,1009.67,VALID,0,INVALID,133.748,VALID,0,VALID,23.8109,VALID,198,VALID,0,
2014-09-25, 01:49:04,VALID,1009.68,VALID,0,INVALID,133.634,VALID,0,VALID,23.8109,VALID,198,VALID,0,
2014-09-25, 01:50:04,VALID,1009.64,VALID,0,INVALID,133.557,VALID,0,VALID,23.8109,VALID,198,VALID,0,
2014-09-25, 01:51:04,VALID,1009.66,VALID,0,INVALID,133.42,VALID,0,VALID,23.8304,VALID,198,VALID,0,
2014-09-25, 01:52:04,VALID,1009.65,VALID,0,INVALID,133.329,VALID,0,VALID,23.8109,VALID,198,VALID,0,
2014-09-25, 01:53:04,VALID,1009.66,VALID,0,INVALID,133.291,VALID,0,VALID,23.8304,VALID,198,VALID,0,
2014-09-25, 01:54:04,VALID,1009.64,VALID,0,INVALID,133.275,VALID,0,VALID,23.8109,VALID,198,VALID,0,
2014-09-25, 01:55:04,VALID,1009.64,VALID,0,INVALID,133.298,VALID,0,VALID,23.7914,VALID,198,VALID,0,
2014-09-25, 01:56:04,VALID,1009.64,VALID,0,INVALID,133.382,VALID,0,VALID,23.7525,VALID,198,VALID,0,
2014-09-25, 01:57:04,VALID,1009.61,VALID,0,INVALID,133.428,VALID,0.112112,VALID,23.7525,VALID,198,VALID,0,
2014-09-25, 01:58:04,VALID,1009.61,VALID,0,INVALID,133.344,VALID,0,VALID,23.7525,VALID,198,VALID,0,
2014-09-25, 01:59:04,VALID,1009.61,VALID,0,INVALID,133.245,VALID,0,VALID,23.7525,VALID,198,VALID,0,
2014-09-25, 02:00:04,VALID,1009.6,VALID,0,INVALID,133.237,VALID,0,VALID,23.733,VALID,198,VALID,0,
2014-09-25, 02:01:04,VALID,1009.6,VALID,0,INVALID,133.283,VALID,0,VALID,23.7135,VALID,198,VALID,0,
2014-09-25, 02:02:04,VALID,1009.57,VALID,0,INVALID,133.245,VALID,0,VALID,23.7135,VALID,198,VALID,0,
2014-09-25, 02:03:04,VALID,1009.53,VALID,0,INVALID,133.252,VALID,0,VALID,23.694,VALID,198,VALID,0,
2014-09-25, 02:04:04,VALID,1009.55,VALID,0,INVALID,133.214,VALID,0,VALID,23.7153,VALID,198,VALID,0,
2014-09-25, 02:05:04,VALID,1009.56,VALID,0,INVALID,133.146,VALID,0,VALID,23.694,VALID,198,VALID,0,
2014-09-25, 02:06:04,VALID,1009.55,VALID,0,INVALID,133.085,VALID,0,VALID,23.7135,VALID,198,VALID,0,
2014-09-25, 02:07:04,VALID,1009.57,VALID,0,INVALID,133.054,VALID,0,VALID,23.694,VALID,198,VALID,0,
2014-09-25, 02:08:04,VALID,1009.61,VALID,0,INVALID,133.069,VALID,0,VALID,23.6958,VALID,198,VALID,0,
2014-09-25, 02:09:04,VALID,1009.6,VALID,0,INVALID,133.138,VALID,0,VALID,23.655,VALID,198,VALID,0,
2014-09-25, 02:10:04,VALID,1009.62,VALID,0,INVALID,133.214,VALID,0,VALID,23.6356,VALID,198,VALID,0,
2014-09-25, 02:11:04,VALID,1009.6,VALID,0,INVALID,133.191,VALID,0,VALID,23.6161,VALID,198,VALID,0,
2014-09-25, 02:12:04,VALID,1009.64,VALID,0,INVALID,133.092,VALID,0.112112,VALID,23.6161,VALID,198,VALID,0,
2014-09-25, 02:13:04,VALID,1009.62,VALID,0,INVALID,133.039,VALID,0,VALID,23.6161,VALID,198,VALID,0,
2014-09-25, 02:14:04,VALID,1009.63,VALID,0,INVALID,133.031,VALID,0,VALID,23.5966,VALID,198,VALID,0,
2014-09-25, 02:15:04,VALID,1009.59,VALID,0,INVALID,132.986,VALID,0,VALID,23.5966,VALID,198,VALID,0,
2014-09-25, 02:16:04,VALID,1009.6,VALID,0,INVALID,132.787,VALID,0,VALID,23.5966,VALID,198,VALID,0,
2014-09-25, 02:17:04,VALID,1009.61,VALID,0,INVALID,132.65,VALID,0,VALID,23.6161,VALID,198,VALID,0,
2014-09-25, 02:18:04,VALID,1009.57,VALID,0,INVALID,132.543,VALID,0,VALID,23.6143,VALID,198,VALID,0,
2014-09-25, 02:19:04,VALID,1009.56,VALID,0,INVALID,132.497,VALID,0,VALID,23.6356,VALID,198,VALID,0,
2014-09-25, 02:20:04,VALID,1009.55,VALID,0,INVALID,132.436,VALID,0,VALID,23.6161,VALID,198,VALID,0,
2014-09-25, 02:21:04,VALID,1009.53,VALID,0,INVALID,132.375,VALID,0,VALID,23.6161,VALID,198,VALID,0,
2014-09-25, 02:22:04,VALID,1009.53,VALID,0,INVALID,132.337,VALID,0,VALID,23.6161,VALID,198,VALID,0,
2014-09-25, 02:23:04,VALID,1009.55,VALID,0,INVALID,132.314,VALID,0,VALID,23.5753,VALID,198,VALID,0,
2014-09-25, 02:24:04,VALID,1009.57,VALID,0,INVALID,132.276,VALID,0,VALID,23.5966,VALID,198,VALID,0,
2014-09-25, 02:25:04,VALID,1009.58,VALID,0,INVALID,132.307,VALID,0,VALID,23.5966,VALID,198,VALID,0,
2014-09-25, 02:26:04,VALID,1009.58,VALID,0,INVALID,132.33,VALID,0,VALID,23.5771,VALID,198,VALID,0,
2014-09-25, 02:27:04,VALID,1009.62,VALID,0,INVALID,132.307,VALID,0,VALID,23.5771,VALID,198,VALID,0,
2014-09-25, 02:28:04,VALID,1009.65,VALID,0,INVALID,132.375,VALID,0,VALID,23.5576,VALID,198,VALID,0,
2014-09-25, 02:29:04,VALID,1009.7,VALID,0,INVALID,132.429,VALID,0,VALID,23.5381,VALID,198,VALID,0,
2014-09-25, 02:30:04,VALID,1009.72,VALID,0,INVALID,132.475,VALID,0,VALID,23.5381,VALID,198,VALID,0,
2014-09-25, 02:31:04,VALID,1009.74,VALID,0,INVALID,132.406,VALID,0,VALID,23.5381,VALID,198,VALID,0,
2014-09-25, 02:32:04,VALID,1009.79,VALID,0,INVALID,132.292,VALID,0,VALID,23.5558,VALID,198,VALID,0.0582031,
2014-09-25, 02:33:04,VALID,1009.81,VALID,0,INVALID,132.055,VALID,0,VALID,23.6161,VALID,198,VALID,0.677734,
2014-09-25, 02:34:04,VALID,1009.85,VALID,0,INVALID,131.704,VALID,0,VALID,23.6338,VALID,198,VALID,0.652734,
2014-09-25, 02:35:04,VALID,1009.89,VALID,0,INVALID,131.407,VALID,0,VALID,23.7135,VALID,198,VALID,0.797656,
2014-09-25, 02:36:04,VALID,1009.88,VALID,0,INVALID,131.132,VALID,0,VALID,23.7525,VALID,197,VALID,0.760938,
2014-09-25, 02:37:04,VALID,1009.9,VALID,0,INVALID,130.888,VALID,0,VALID,23.7525,VALID,197,VALID,0.514063,
2014-09-25, 02:38:04,VALID,1009.95,VALID,0,INVALID,130.736,VALID,0,VALID,23.772,VALID,197,VALID,0.137109,
2014-09-25, 02:39:04,VALID,1009.9,VALID,0,INVALID,130.644,VALID,0,VALID,23.7914,VALID,197,VALID,0,
2014-09-25, 02:40:04,VALID,1009.91,VALID,0,INVALID,130.568,VALID,0,VALID,23.7896,VALID,197,VALID,0,
2014-09-25, 02:41:04,VALID,1009.92,VALID,0,INVALID,130.446,VALID,0,VALID,23.8091,VALID,197,VALID,0,
2014-09-25, 02:42:04,VALID,1009.9,VALID,0,INVALID,130.248,VALID,0,VALID,23.8499,VALID,197,VALID,0,
2014-09-25, 02:43:04,VALID,1009.92,VALID,0,INVALID,130.072,VALID,0.112112,VALID,23.8889,VALID,197,VALID,0,
2014-09-25, 02:44:04,VALID,1009.9,VALID,0,INVALID,129.966,VALID,0,VALID,23.8889,VALID,197,VALID,0,
2014-09-25, 02:45:04,VALID,1009.91,VALID,0,INVALID,129.859,VALID,0,VALID,23.9278,VALID,197,VALID,0,
2014-09-25, 02:46:04,VALID,1009.92,VALID,0,INVALID,129.775,VALID,0,VALID,23.9473,VALID,197,VALID,0.303125,
2014-09-25, 02:47:04,VALID,1009.93,VALID,0,INVALID,129.714,VALID,0,VALID,23.9668,VALID,197,VALID,0.0875,
2014-09-25, 02:48:04,VALID,1009.93,VALID,0,INVALID,129.645,VALID,0,VALID,23.9863,VALID,197,VALID,0,
2014-09-25, 02:49:04,VALID,1009.91,VALID,0,INVALID,129.623,VALID,0,VALID,23.9863,VALID,197,VALID,0.330469,
2014-09-25, 02:50:04,VALID,1009.88,VALID,0,INVALID,129.63,VALID,0,VALID,23.9845,VALID,197,VALID,0.106641,
2014-09-25, 02:51:04,VALID,1009.87,VALID,0,INVALID,129.63,VALID,0,VALID,24.0058,VALID,197,VALID,0.28125,
2014-09-25, 02:52:04,VALID,1009.87,VALID,0,INVALID,129.661,VALID,0.112112,VALID,24.0253,VALID,197,VALID,0,
2014-09-25, 02:53:04,VALID,1009.87,VALID,0,INVALID,129.615,VALID,0,VALID,24.0253,VALID,197,VALID,0.0523437,
2014-09-25, 02:54:04,VALID,1009.85,VALID,0,INVALID,129.569,VALID,0,VALID,24.0448,VALID,197,VALID,0,
2014-09-25, 02:55:04,VALID,1009.85,VALID,0,INVALID,129.539,VALID,0,VALID,24.0643,VALID,197,VALID,0,
2014-09-25, 02:56:04,VALID,1009.85,VALID,0,INVALID,129.539,VALID,0,VALID,24.0837,VALID,197,VALID,0,
2014-09-25, 02:57:04,VALID,1009.86,VALID,0,INVALID,129.501,VALID,0,VALID,24.1032,VALID,197,VALID,0,
2014-09-25, 02:58:04,VALID,1009.87,VALID,0,INVALID,129.478,VALID,0,VALID,24.1227,VALID,197,VALID,0,
2014-09-25, 02:59:04,VALID,1009.84,VALID,0,INVALID,129.409,VALID,0,VALID,24.1617,VALID,197,VALID,0,
2014-09-25, 03:00:04,VALID,1009.87,VALID,0,INVALID,129.348,VALID,0,VALID,24.1617,VALID,197,VALID,0,
2014-09-25, 03:01:04,VALID,1009.84,VALID,0,INVALID,129.371,VALID,0,VALID,24.1812,VALID,197,VALID,0,
2014-09-25, 03:02:04,VALID,1009.79,VALID,0,INVALID,129.356,VALID,0,VALID,24.2007,VALID,197,VALID,0,
2014-09-25, 03:03:04,VALID,1009.81,VALID,0,INVALID,129.333,VALID,0,VALID,24.2007,VALID,197,VALID,0,
2014-09-25, 03:04:04,VALID,1009.75,VALID,0,INVALID,129.31,VALID,0,VALID,24.1988,VALID,197,VALID,0,
2014-09-25, 03:05:04,VALID,1009.76,VALID,0,INVALID,129.333,VALID,0,VALID,24.2396,VALID,197,VALID,0,
2014-09-25, 03:06:04,VALID,1009.71,VALID,0,INVALID,129.386,VALID,0,VALID,24.2396,VALID,197,VALID,0,
2014-09-25, 03:07:04,VALID,1009.7,VALID,0,INVALID,129.379,VALID,0,VALID,24.2396,VALID,197,VALID,0,
2014-09-25, 03:08:04,VALID,1009.72,VALID,0,INVALID,129.417,VALID,0,VALID,24.2396,VALID,197,VALID,0,
2014-09-25, 03:09:04,VALID,1009.73,VALID,0,INVALID,129.493,VALID,0,VALID,24.2396,VALID,197,VALID,0.275391,
2014-09-25, 03:10:04,VALID,1009.74,VALID,0,INVALID,129.569,VALID,0,VALID,24.2396,VALID,197,VALID,0.164063,
2014-09-25, 03:11:04,VALID,1009.72,VALID,0,INVALID,129.6,VALID,0,VALID,24.2591,VALID,197,VALID,0.183594,
2014-09-25, 03:12:04,VALID,1009.74,VALID,0,INVALID,129.615,VALID,0,VALID,24.2786,VALID,197,VALID,0.189453,
2014-09-25, 03:13:04,VALID,1009.73,VALID,0,INVALID,129.653,VALID,0,VALID,24.2981,VALID,197,VALID,0.282422,
2014-09-25, 03:14:04,VALID,1009.73,VALID,0,INVALID,129.661,VALID,0,VALID,24.2981,VALID,197,VALID,0.046875,
2014-09-25, 03:15:04,VALID,1009.73,VALID,0,INVALID,129.745,VALID,0,VALID,24.3176,VALID,197,VALID,0,
2014-09-25, 03:16:04,VALID,1009.74,VALID,0,INVALID,129.844,VALID,0,VALID,24.3371,VALID,197,VALID,0,
2014-09-25, 03:17:04,VALID,1009.71,VALID,0,INVALID,129.897,VALID,0,VALID,24.3566,VALID,197,VALID,0,
2014-09-25, 03:18:04,VALID,1009.73,VALID,0,INVALID,129.92,VALID,0,VALID,24.3566,VALID,197,VALID,0,
2014-09-25, 03:19:04,VALID,1009.76,VALID,0,INVALID,129.958,VALID,0,VALID,24.3974,VALID,197,VALID,0,
2014-09-25, 03:20:04,VALID,1009.79,VALID,0,INVALID,130.072,VALID,0,VALID,24.3761,VALID,197,VALID,0,
2014-09-25, 03:21:04,VALID,1009.79,VALID,0,INVALID,130.225,VALID,0,VALID,24.3761,VALID,197,VALID,0,
2014-09-25, 03:22:04,VALID,1009.78,VALID,0,INVALID,130.294,VALID,0,VALID,24.3956,VALID,197,VALID,0,
2014-09-25, 03:23:04,VALID,1009.75,VALID,0,INVALID,130.431,VALID,0,VALID,24.3742,VALID,197,VALID,0,
2014-09-25, 03:24:04,VALID,1009.75,VALID,0,INVALID,130.522,VALID,0,VALID,24.3956,VALID,197,VALID,0,
2014-09-25, 03:25:04,VALID,1009.74,VALID,0,INVALID,130.622,VALID,0,VALID,24.415,VALID,197,VALID,0,
2014-09-25, 03:26:04,VALID,1009.76,VALID,0,INVALID,130.766,VALID,0,VALID,24.415,VALID,197,VALID,0,
2014-09-25, 03:27:04,VALID,1009.73,VALID,0,INVALID,130.873,VALID,0,VALID,24.3956,VALID,197,VALID,0,
2014-09-25, 03:28:04,VALID,1009.75,VALID,0,INVALID,130.972,VALID,0,VALID,24.415,VALID,197,VALID,0,
2014-09-25, 03:29:04,VALID,1009.72,VALID,0,INVALID,131.094,VALID,0,VALID,24.3956,VALID,197,VALID,0,
2014-09-25, 03:30:04,VALID,1009.73,VALID,0,INVALID,131.193,VALID,0,VALID,24.415,VALID,197,VALID,0,
2014-09-25, 03:31:04,VALID,1009.76,VALID,0,INVALID,131.239,VALID,0,VALID,24.415,VALID,197,VALID,0,
2014-09-25, 03:32:04,VALID,1009.79,VALID,0,INVALID,131.27,VALID,0,VALID,24.4345,VALID,197,VALID,0.20625,
2014-09-25, 03:33:04,VALID,1009.78,VALID,0,INVALID,131.331,VALID,0,VALID,24.454,VALID,197,VALID,0,
2014-09-25, 03:34:04,VALID,1009.77,VALID,0,INVALID,131.43,VALID,0,VALID,24.454,VALID,197,VALID,0,
2014-09-25, 03:35:04,VALID,1009.78,VALID,0,INVALID,131.498,VALID,0,VALID,24.4735,VALID,197,VALID,0.30625,
2014-09-25, 03:36:04,VALID,1009.79,VALID,0,INVALID,131.529,VALID,0,VALID,24.4717,VALID,197,VALID,0.0171875,
2014-09-25, 03:37:04,VALID,1009.81,VALID,0,INVALID,131.605,VALID,0,VALID,24.5125,VALID,197,VALID,0,
2014-09-25, 03:38:04,VALID,1009.83,VALID,0,INVALID,131.582,VALID,0,VALID,24.5515,VALID,197,VALID,0,
2014-09-25, 03:39:04,VALID,1009.8,VALID,0,INVALID,131.62,VALID,0,VALID,24.571,VALID,197,VALID,0,
2014-09-25, 03:40:04,VALID,1009.83,VALID,0,INVALID,131.727,VALID,0,VALID,24.571,VALID,197,VALID,0,
2014-09-25, 03:41:04,VALID,1009.87,VALID,0,INVALID,131.819,VALID,0,VALID,24.571,VALID,197,VALID,0,
2014-09-25, 03:42:04,VALID,1009.85,VALID,0,INVALID,131.895,VALID,0,VALID,24.5905,VALID,197,VALID,0,
2014-09-25, 03:43:04,VALID,1009.88,VALID,0,INVALID,132.009,VALID,0,VALID,24.6099,VALID,197,VALID,0,
2014-09-25, 03:44:04,VALID,1009.92,VALID,0,INVALID,132.177,VALID,0,VALID,24.5905,VALID,197,VALID,0,
2014-09-25, 03:45:04,VALID,1009.93,VALID,0,INVALID,132.391,VALID,0,VALID,24.6099,VALID,197,VALID,0,
2014-09-25, 03:46:04,VALID,1009.88,VALID,0,INVALID,132.68,VALID,0,VALID,24.5905,VALID,197,VALID,0.442187,
2014-09-25, 03:47:04,VALID,1009.89,VALID,0,INVALID,133.1,VALID,0,VALID,24.571,VALID,197,VALID,0.491406,